Location: Quaker Farms
(41.4276°N, 73.1557°W)
Time: 11:17:44
(UTC+00:00)

Explorer 11/Cluster Stage 4 - Visible Passes

Search period start: 13 June 2021 00:00
Search period end: 23 June 2021 00:00
Orbit: 467 x 1257 km, 28.8° (Epoch: 12 June)

Date Brightness Start Highest point End Pass type
(mag) Time Alt. Az. Time Alt. Az. Time Alt. Az.
17 Jun 9.1 08:37:08 10° SSW 08:41:45 17° SSE 08:46:05 10° ESE visible
18 Jun 9.0 08:25:11 10° SSW 08:30:25 19° SSE 08:35:21 10° ESE visible
19 Jun 8.8 08:13:27 10° SSW 08:19:04 21° SSE 08:24:29 10° ESE visible
20 Jun 8.7 08:02:37 13° SSW 08:07:43 23° SSE 08:13:32 10° ESE visible
21 Jun 9.3 06:09:42 11° SE 06:09:42 11° SE 06:10:54 10° SE visible
21 Jun 8.6 07:51:47 16° SSW 07:56:20 25° SSE 08:02:29 10° ESE visible
22 Jun 9.3 05:58:51 12° SE 05:58:51 12° SE 06:00:27 10° SE visible
22 Jun 8.5 07:40:56 18° SSW 07:44:58 27° SSE 07:51:23 10° ESE visible
